Location: Bay Ridge
(40.6340°N, 74.0146°W)
Time: 06:06:48
(UTC+00:00)

CZ-4B R/B - Pass Details

Date: 15 November 2019
Orbit: 498 x 646 km, 97.7° (Epoch: 12 December)

Event Time Altitude Azimuth Distance (km) Brightness Sun altitude
Rises 09:55:27 0° 6° (N) 2,958 7.5 -20.3°
Reaches altitude 10° 09:57:42 10° 2° (N) 2,051 6.7 -19.9°
Maximum altitude 10:02:03 51° 287° (WNW) 815 4.2 -19.1°
Drops below altitude 10° 10:06:22 10° 212° (SSW) 2,030 6.5 -18.3°
Sets 10:08:35 0° 207° (SSW) 2,925 7.3 -17.8°
